Find Starlink 31086

NORAD ID: 58626 Int'l Des: 2023-203 Owner: SPXS Country: US Constellation: starlink operational
LEOCIRCULAR

当前视图

正在加载3D地球...

About Starlink 31086

Starlink 31086 (NORAD 58626) is a starlink constellation satellite (v2 mini) launched Dec 23, 2023 by SPXS of US. It operates in LEO, CIRCULAR orbit with a mass of 730.00 kg.

即将过境

Passes for default location (London). Set your location on the main map for personalized predictions.

高度历史

Loading altitude history...

两行轨道根数

1 58626U 23203J 26235.93404709 .00000256 00000-0 18817-4 0 9993
2 58626 43.0018 202.2066 0000829 269.5572 90.5184 15.27577356149142
Epoch: Aug 23, 2026 • Age: 12 hours

当前状态

高度 482.7 km
远地点 / 近地点 N/A
速度 7.63 km/s
星下点 19.76°N, 126.62°W
发射日期 Dec 23, 2023
运行时间 2.6 years
类型 internet

技术详情

分类 Payload
质量 730.00 kg
干质量 700.00 kg
总质量 730.00 kg
长度 0.30 m
直径 4.10 m
跨度 29.00 m
形状 Box + pan
制造商 SPXS
平台类型 Starlink V2M
阶段状态 In Orbit
所有者/国家 SPXS/US

Most Searched